Regional Weather Roundup
Issued by NWS

Home | Current Version | Previous Version | Graphics & Text | Print | Product List | Glossary On
Versions: 1 2 3 4 5 6 7 8 9 10 11 12 13 14 15 16 17 18 19 20 21 22 23 24 25 26 27 28 29 30 31 32 33 34 35 36 37 38 39 40 41 42 43 44 45 46 47 48 49 50
000
ASUS45 KSLC 241210
RWRUT

UTAH REGIONAL WEATHER ROUNDUP
NATIONAL WEATHER SERVICE SALT LAKE CITY UT
600 AM MDT THU JUL 24 2014

UTZ001>011-023>025-241300-

NORTHERN UTAH

CITY           SKY/WX    TMP DP  RH WIND       PRES   REMARKS
HILL AFB       PTCLDY    77  50  37 SW10      30.04R
LOGAN          NOT AVBL
OGDEN          PTCLDY    74  45  35 W6        30.01R
PROVO AIRPORT  CLOUDY    73  55  53 S6        30.08R
SALT LAKE CITY MOCLDY    80  44  27 SW5       30.01R
VERNAL         CLOUDY    77  46  33 CALM      30.17R
WENDOVER       PTCLDY    77  28  16 SE8       30.03R
HEBER CITY     CLOUDY    66  48  52 E5        30.17R
WEST JORDAN    PTCLDY    86  50  28 S21G38    30.06R

$$

UTZ012>022-026-027-241300-

SOUTHERN UTAH

CITY           SKY/WX    TMP DP  RH WIND       PRES   REMARKS
BRYCE CANYON   MOCLDY    58  43  57 SW5       30.38S
CEDAR CITY     PTCLDY    71  31  22 S6        30.17S
MILFORD        MOCLDY    77  35  21 SW12      30.09S
MOAB/CYNLANDS  CLEAR     81  47  30 SE10      30.12S
PRICE          CLOUDY    74  48  39 E10       30.23S
ST GEORGE      CLOUDY    88  36  15 SE10      29.96S
KANAB            N/A     70  39  32 NE5       30.19S

$$

REGIONAL REPORTS     COLORADO/ARIZONA

CITY           SKY/WX    TMP DP  RH WIND       PRES   REMARKS
CRAIG, CO      MOCLDY    52  50  93 CALM      30.25S
GRAND JUNCTION MOCLDY    81  48  31 SE17      30.17R
RIFLE          PTCLDY    67  47  48 CALM      30.24R
MONTROSE       LGT RAIN  67  55  65 S7        30.31R
CORTEZ         CLEAR     66  51  58 SE5       30.30S
PAGE, AZ       MOCLDY    85  50  29 CALM      30.11S
GRAND CANYON   MOCLDY    68  50  52 NE3       30.33R
KINGMAN        PTCLDY    82  29  14 CALM      30.02S
FLAGSTAFF      CLOUDY    64  50  60 CALM      30.37S

$$

REGIONAL REPORTS    NEVADA/IDAHO/WYOMING

CITY           SKY/WX    TMP DP  RH WIND       PRES   REMARKS
LAS VEGAS, NV  PTCLDY    89  28  11 S13       29.83R
ELY            PTCLDY    55  24  30 SE7       30.19S
ELKO           CLEAR     58  29  33 W5        30.14S
POCATELLO, ID  PTCLDY    67  34  29 SW16      30.07R
BURLEY         CLEAR     63  42  46 SW15      30.08R
EVANSTON, WY   PTCLDY    67  41  38 SW16      30.23R
ROCK SPRINGS   PTCLDY    68  35  29 W7        30.20F

$$



USA.gov is the U.S. government's official web portal to all federal, state and local government web resources and services.